FW1603 Weather Reports


time (UTC)temp
C
wind
direction
speed
KPH
gust
KPH
rain 1hr
cm
rain 24hr
cm
rain mn
cm
humidity
%
barometer
mb
20260507001617 28 185 0.0 1.6 0.00 0.00 0.00 55 1013.6
20260507000058 28 152 0.0 0.0 0.00 0.00 0.00 53 1013.6
20260506234554 28 209 0.0 1.6 0.00 0.00 0.00 51 1013.5
20260506233059 29 191 0.0 3.2 0.00 0.00 0.00 50 1013.6
20260506231553 30 217 0.0 4.8 0.00 0.00 0.00 50 1013.5
20260506230052 30 217 0.0 6.4 0.00 0.00 0.00 48 1013.5
20260506224551 31 167 0.0 1.6 0.00 0.00 0.00 47 1013.7
20260506223104 31 275 0.0 3.2 0.00 0.00 0.00 48 1013.6
20260506221550 32 185 0.0 3.2 0.00 0.00 0.00 48 1013.4
20260506220049 32 161 0.0 3.2 0.00 0.00 0.00 44 1013.3
20260506214547 32 160 0.0 6.4 0.00 0.00 0.00 45 1013.3
20260506213045 33 160 0.0 0.0 0.00 0.00 0.00 42 1013.5
20260506211546 33 182 0.0 0.0 0.00 0.00 0.00 40 1013.5
20260506210045 33 171 0.0 3.2 0.00 0.00 0.00 41 1013.5
20260506204543 33 194 0.0 3.2 0.00 0.00 0.00 40 1013.5
20260506203045 32 142 0.0 1.6 0.00 0.00 0.00 41 1013.7
20260506201540 33 195 0.0 1.6 0.00 0.00 0.00 41 1013.7
20260506200056 33 184 0.0 3.2 0.00 0.00 0.00 42 1013.9
20260506194538 33 51 0.0 0.0 0.00 0.00 0.00 43 1014.0
20260506193034 32 217 0.0 1.6 0.00 0.00 0.00 44 1014.0
20260506191534 33 178 0.0 0.0 0.00 0.00 0.00 42 1014.2
20260506190030 32 183 0.0 1.6 0.00 0.00 0.00 43 1014.4
20260506184526 32 57 0.0 0.0 0.00 0.00 0.00 45 1014.6
20260506183025 32 179 0.0 0.0 0.00 0.00 0.00 45 1014.7
20260506181529 32 207 0.0 1.6 0.00 0.00 0.00 48 1014.9
20260506180031 32 261 0.0 1.6 0.00 0.00 0.00 48 1015.0
20260506174518 31 173 0.0 0.0 0.00 0.00 0.00 49 1015.2
20260506173015 31 11 0.0 0.0 0.00 0.00 0.00 49 1015.3
20260506171518 31 292 0.0 0.0 0.00 0.00 0.00 51 1015.6
20260506170007 30 5 0.0 3.2 0.00 0.00 0.00 53 1015.8
20260506164504 30 164 0.0 0.0 0.00 0.00 0.00 55 1015.9
20260506163007 29 313 0.0 0.0 0.00 0.00 0.00 56 1016.1
20260506161600 28 188 0.0 1.6 0.00 0.00 0.00 58 1016.2
20260506160107 28 159 0.0 1.6 0.00 0.00 0.00 59 1016.3
20260506154553 28 200 0.0 1.6 0.00 0.00 0.00 61 1016.4
20260506153050 27 163 0.0 4.8 0.00 0.00 0.00 62 1016.4
20260506151549 27 202 0.0 1.6 0.00 0.00 0.00 62 1016.5
20260506150045 26 214 0.0 0.0 0.00 0.00 0.00 66 1016.4
20260506144541 26 38 0.0 1.6 0.00 0.00 0.00 67 1016.2
20260506143038 25 213 0.0 0.0 0.00 0.00 0.00 69 1016.1
20260506141535 25 100 0.0 0.0 0.00 0.00 0.00 70 1016.2
20260506140037 24 342 0.0 0.0 0.00 0.00 0.00 71 1016.2
20260506134603 23 360 0.0 0.0 0.00 0.00 0.00 70 1016.2
20260506133026 22 162 0.0 0.0 0.00 0.00 0.00 71 1016.2
20260506131526 22 148 0.0 0.0 0.00 0.00 0.00 71 1016.2
20260506130020 21 197 0.0 0.0 0.00 0.00 0.00 71 1016.0
20260506124516 21 193 0.0 0.0 0.00 0.00 0.00 70 1015.8
20260506123013 20 132 0.0 0.0 0.00 0.00 0.00 67 1015.7
20260506121513 18 59 0.0 0.0 0.00 0.00 0.00 61 1015.8
20260506120014 18 355 0.0 0.0 0.00 0.00 0.00 56 1015.7
20260506114521 17 355 0.0 0.0 0.00 0.00 0.00 57 1015.4
20260506113010 17 355 0.0 0.0 0.00 0.00 0.00 58 1015.3
20260506111509 17 355 0.0 0.0 0.00 0.00 0.00 60 1015.2
20260506110014 17 355 0.0 0.0 0.00 0.00 0.00 62 1015.2
20260506104506 17 355 0.0 0.0 0.00 0.00 0.00 63 1015.1
20260506103017 17 355 0.0 0.0 0.00 0.00 0.00 65 1014.9
20260506101505 17 355 0.0 0.0 0.00 0.00 0.00 66 1014.7
20260506100003 17 355 0.0 0.0 0.00 0.00 0.00 67 1014.7
20260506094502 17 355 0.0 0.0 0.00 0.00 0.00 68 1014.7
20260506093101 17 355 0.0 0.0 0.00 0.00 0.00 69 1014.7
20260506091600 17 355 0.0 0.0 0.00 0.00 0.00 70 1014.7
20260506090059 17 355 0.0 0.0 0.00 0.00 0.00 71 1014.6
20260506084605 17 355 0.0 0.0 0.00 0.00 0.00 71 1014.6
20260506083115 17 355 0.0 0.0 0.00 0.00 0.00 71 1014.6
20260506081556 18 355 0.0 0.0 0.00 0.00 0.00 72 1014.7
20260506073052 18 355 0.0 0.0 0.00 0.00 0.00 72 1014.4
20260506071554 18 355 0.0 0.0 0.00 0.00 0.00 72 1014.5
20260506061543 19 355 0.0 0.0 0.00 0.00 0.00 70 1015.1
20260506044529 20 355 0.0 0.0 0.00 0.00 0.00 66 1015.7
20260506043027 20 355 0.0 0.0 0.00 0.00 0.00 66 1015.8
20260506041527 21 355 0.0 0.0 0.00 0.00 0.00 66 1015.8
20260506040027 21 355 0.0 0.0 0.00 0.00 0.00 65 1015.9
20260506034523 21 355 0.0 0.0 0.00 0.00 0.00 64 1016.1
20260506033022 21 355 0.0 0.0 0.00 0.00 0.00 62 1015.8
20260506031528 22 355 0.0 0.0 0.00 0.00 0.00 61 1015.6
20260506030022 22 355 0.0 0.0 0.00 0.00 0.00 61 1015.3
20260506024534 22 355 0.0 0.0 0.00 0.00 0.00 60 1015.2
20260506023020 22 355 0.0 0.0 0.00 0.00 0.00 60 1015.1
20260506021520 23 350 0.0 0.0 0.00 0.00 0.00 59 1015.1
20260506020021 23 13 0.0 0.0 0.00 0.00 0.00 59 1014.7
20260506014519 23 5 0.0 0.0 0.00 0.00 0.00 58 1014.8
20260506013019 24 9 0.0 0.0 0.00 0.00 0.00 57 1014.8
20260506011544 25 347 0.0 0.0 0.00 0.00 0.00 56 1014.6
20260506010019 25 360 0.0 0.0 0.00 0.00 0.00 55 1014.6
20260506004518 25 5 0.0 0.0 0.00 0.00 0.00 54 1014.6
20260506003022 25 355 0.0 0.0 0.00 0.00 0.00 53 1014.3